Location: Asar Burnu
(36.5203°N, 30.5523°E)
Time: 10:13:19
(UTC+00:00)

CARTOSAT-1 - Pass Details

Date: 04 August 2024
Orbit: 603 x 606 km, 97.6° (Epoch: 18 September)

Event Time Altitude Azimuth Distance (km) Brightness Sun altitude
Exits shadow 17:27:51 - 153° (SSE) 2,739 6.4 -5.8°
Reaches altitude 10° 17:29:47 10° 147° (SSE) 1,955 5.6 -6.2°
Maximum altitude 17:33:52 47° 74° (ENE) 812 3.9 -6.9°
Drops below altitude 10° 17:37:58 10° 1° (N) 1,968 6.5 -7.7°
Sets 17:40:12 0° 355° (N) 2,876 7.5 -8.1°
